Location: Unspecified
(0.0000°N, 0.0000°E)
Time: 14:49:15
(UTC+00:00)

STARLINK-36925 - Pass Details

Date: 04 March 2026
Orbit: 271 x 272 km, 53.2° (Epoch: 6 March)

Event Time Altitude Azimuth Distance (km) Brightness Sun altitude
Rises 19:02:53 0° 219° (SW) 1,857 6.1 -12.7°
Reaches altitude 10° 19:04:46 10° 223° (SW) 1,054 4.8 -13.2°
Maximum altitude 19:07:03 57° 303° (WNW) 316 1.7 -13.8°
Enters shadow 19:08:25 21° 18° (NNE) 673 2.9 -14.1°
